Location: Althorst
(53.6379°N, 10.7715°E)
Time: 12:45:11
(UTC+00:00)

Cosmos 2360 Rocket - Pass Details

Date: 10 December 2019
Orbit: 833 x 846 km, 71.0° (Epoch: 26 January)

Event Time Altitude Azimuth Distance (km) Brightness Sun altitude
Rises 15:26:20 0° 208° (SSW) 3,387 6.6 -4.3°
Reaches altitude 10° 15:28:46 10° 208° (SSW) 2,458 5.8 -4.6°
Maximum altitude 15:34:26 87° 120° (ESE) 853 2.3 -5.3°
Drops below altitude 10° 15:40:08 10° 33° (NNE) 2,479 4.1 -6.1°
Enters shadow 15:41:31 - 33° (NNE) 3,005 4.5 -6.2°
